Weather History for KRNM - February, 2014

Change the Weather History Date:

Sunday, February 16, 2014

  Actual Average Record
Temperature  
Mean Temperature 59 °F 51 °F  
Max Temperature 79 °F 65 °F 87 °F (1977)
Min Temperature 38 °F 37 °F 25 °F (1990)
Degree Days  
Heating Degree Days 6 14  
Month to date heating degree days 187 232  
Since 1 July heating degree days 1315 1579  
Cooling Degree Days 0 0  
Month to date cooling degree days 0 0  
Year to date cooling degree days 0 1  
Growing Degree Days 9 (Base 50)    
Moisture  
Dew Point 31 °F    
Average Humidity 41    
Maximum Humidity 70    
Minimum Humidity 12    
Precipitation  
Precipitation 0.00 in 0.13 in 1.10 in (2009)
Month to date precipitation 0.26 1.57  
Year to date precipitation 0.45 4.89  
Since 1 July precipitation 3.21 9.60  
Snow  
Snow 0.00 in - - ()
Month to date snowfall 0.0  
Year to date snowfall 0.0  
Since 1 July snowfall 0.0  
Snow Depth 0.00 in    
Sea Level Pressure  
Sea Level Pressure 30.02 in    
Wind  
Wind Speed 3 mph (WNW)    
Max Wind Speed 14 mph    
Max Gust Speed 19 mph    
Visibility 10 miles    
Events      
T = Trace of Precipitation, MM = Missing Value Source: NWS Daily Summary

Daily Weather History Graph

Daily Weather History Graph

Search for Another Location

Airport or City:

Trip Planner

Search our weather history database for the weather conditions in past years. The results will help you decide how hot, cold, wet, or windy it might be!

Date:

Astronomy

Feb. 16, 2014 Rise Set
Actual Time 6:30 AM PST 5:33 PM PST
Civil Twilight 6:04 AM PST 5:59 PM PST
Nautical Twilight 5:35 AM PST 6:28 PM PST
Astronomical Twilight 5:07 AM PST 6:56 PM PST
Moon 7:26 PM PST (2/16) 7:09 AM PST (2/16)
Length of Visible Light 11h 54m
Length of Day
11h 03m
Full, 97% of the Moon is Illuminated
Feb 16
Full
Feb 22
Last Quarter
Mar 1
New
Mar 8
First Quarter
Mar 16
Full

Hourly Weather History & Observations

Time (PST) Temp. Windchill Dew Point Humidity Pressure Visibility Wind Dir Wind Speed Gust Speed Precip Events Conditions
12:53 AM 45.0 °F - 33.1 °F 63% 29.97 in 9.0 mi Calm Calm - N/A   Clear
1:53 AM 44.1 °F 42.5 °F 32.0 °F 63% 29.98 in 10.0 mi WNW 3.5 mph - N/A   Clear
2:53 AM 44.1 °F - 33.1 °F 65% 29.97 in 10.0 mi Calm Calm - N/A   Clear
3:53 AM 42.1 °F - 32.0 °F 67% 29.98 in 10.0 mi Calm Calm - N/A   Clear
4:53 AM 41.0 °F - 30.9 °F 67% 29.99 in 10.0 mi Calm Calm - N/A   Clear
5:53 AM 42.1 °F - 32.0 °F 67% 30.01 in 10.0 mi Calm Calm - N/A   Clear
6:53 AM 39.9 °F - 30.9 °F 70% 30.04 in 10.0 mi Calm Calm - N/A   Clear
7:53 AM 48.9 °F - 34.0 °F 56% 30.04 in 10.0 mi ENE 4.6 mph - N/A   Clear
8:53 AM 64.9 °F - 27.0 °F 24% 30.04 in 10.0 mi Calm Calm - N/A   Clear
9:53 AM 75.0 °F - 21.9 °F 14% 30.03 in 10.0 mi Calm Calm - N/A   Clear
10:53 AM 77.0 °F - 23.0 °F 13% 30.03 in 10.0 mi NW 10.4 mph - N/A   Clear
11:53 AM 79.0 °F - 23.0 °F 13% 30.01 in 10.0 mi NW 10.4 mph - N/A   Clear
12:53 PM 75.9 °F - 33.1 °F 21% 30.00 in 10.0 mi West 8.1 mph - N/A   Clear
1:53 PM 75.0 °F - 26.1 °F 16% 29.99 in 10.0 mi West 9.2 mph - N/A   Clear
2:53 PM 75.0 °F - 24.1 °F 15% 29.98 in 10.0 mi West 5.8 mph - N/A   Clear
3:53 PM 75.0 °F - 28.0 °F 18% 29.99 in 10.0 mi West 6.9 mph - N/A   Clear
4:53 PM 70.0 °F - 30.9 °F 24% 30.00 in 10.0 mi West 8.1 mph - N/A   Clear
5:53 PM 63.0 °F - 35.1 °F 35% 30.02 in 10.0 mi West 4.6 mph - N/A   Clear
6:53 PM 57.0 °F - 34.0 °F 42% 30.05 in 10.0 mi NE 3.5 mph - N/A   Clear
7:53 PM 51.1 °F - 34.0 °F 52% 30.06 in 10.0 mi Calm Calm - N/A   Clear
8:53 PM 48.0 °F - 33.1 °F 56% 30.07 in 10.0 mi SSE 3.5 mph - N/A   Clear
9:53 PM 48.9 °F - 35.1 °F 59% 30.06 in 10.0 mi Calm Calm - N/A   Clear
10:53 PM 46.9 °F - 33.1 °F 59% 30.06 in 10.0 mi Calm Calm - N/A   Clear
11:53 PM 44.1 °F - 33.1 °F 65% 30.05 in 10.0 mi Calm Calm - N/A   Clear